This demonstration page uses our WeatherBlox Daily Observations layout. Learn more.

39.08367, -84.50855

Hourly Observations for January 23, 2019

Temp ( °F °C ) Dew Point ( °F °C ) Humidity (%) Winds ( mph kmh ) Pressure ( in mb ) Visibility ( mi km ) Precip ( " mm )
12:53 am 00:53 Cloudy 44 6.7 31 -0.6 60 60 S 9 15 30.06 1018 10 16.09344 0 0
1:53 am 01:53 Cloudy 44 6.7 33 0.6 65 65 S 8 13 30.03 1017 10 16.09344 0 0
2:53 am 02:53 Cloudy with Light Rain 44 6.7 35 1.7 71 71 S 8 13 30 1016 10 16.09344 0.001 0.001
3:53 am 03:53 Cloudy 44 6.7 38 3.3 79 79 S 6 9 29.97 1015 10 16.09344 0.001 0.001
4:53 am 04:53 Cloudy with Light Rain 45 7.2 39 3.9 80 80 S 13 20 29.94 1014 10 16.09344 0.01 0.254
5:53 am 05:53 Cloudy with Light Rain 45 7.2 40 4.4 83 83 S 7 11 29.91 1013 10 16.09344 0.01 0.254
6:53 am 06:53 Cloudy with Light Rain 45 7.2 41 5 86 86 S 8 13 29.88 1012 9 14.484096 0.02 0.508
7:53 am 07:53 Cloudy with Light Rain 45 7.2 42 5.6 90 90 S 13 20 29.85 1011 8 12.874752 0.06 1.524
8:53 am 08:53 Cloudy with Light Rain 46 7.8 43 6.1 89 89 S 10 17 29.85 1011 5 8.04672 0.07 1.778
9:53 am 09:53 Cloudy with Rain 46 7.8 44 6.7 93 93 SSW 5 7 29.85 1011 3 4.828032 0.09 2.286
10:53 am 10:53 Cloudy with Light Rain 50 10 46 7.8 86 86 S 15 24 29.85 1011 6 9.656064 0.08 2.032
11:53 am 11:53 Cloudy with Light Rain 51 10.6 48 8.9 89 89 S 16 26 29.83 1010 8 12.874752 0.04 1.016
12:02 pm 12:02 Cloudy with Light Rain 51 10.6 48 8.9 89 89 S 17 28 29.85 1011 6 9.656064 0.001 0.001
12:53 pm 12:53 Cloudy with Light Rain 50 10 48 8.9 93 93 SSW 12 19 29.8 1009 3 4.828032 0.03 0.762
12:57 pm 12:57 Cloudy with Rain 50 10 48 8.9 93 93 SSW 12 19 29.83 1010 2 3.218688 0.01 0.254
1:18 pm 13:18 Cloudy with Light Rain 50 10 48 8.9 93 93 S 12 19 29.83 1010 6 9.656064 0.03 0.762
1:53 pm 13:53 Cloudy with Light Rain 51 10.6 49 9.4 92 92 S 15 24 29.74 1007 9 14.484096 0.04 1.016
2:45 pm 14:45 Cloudy with Light Rain 52 11.1 49 9.4 89 89 S 14 22 29.77 1008 10 16.09344 0.01 0.254
2:53 pm 14:53 Cloudy with Light Rain 52 11.1 49 9.4 89 89 SSW 13 20 29.71 1006 7 11.265408 0.01 0.254
3:53 pm 15:53 Cloudy with Light Rain 52 11.1 49 9.4 89 89 S 16 26 29.68 1005 6 9.656064 0.05 1.27
4:53 pm 16:53 Cloudy with Light Rain 52 11.1 49 9.4 89 89 SSW 10 17 29.65 1004 10 16.09344 0.02 0.508
5:42 pm 17:42 Cloudy with Light Rain 50 10 48 8.9 93 93 S 3 6 29.74 1007 6 9.656064 0.05 1.27
5:53 pm 17:53 Cloudy with Light Rain 50 10 48 8.9 93 93 SW 3 6 29.71 1006 5 8.04672 0.06 1.524
6:00 pm 18:00 Cloudy with Rain 50 10 48 8.9 93 93 SW 5 7 29.74 1007 5 8.04672 0.01 0.254
6:32 pm 18:32 Cloudy with Rain 48 8.9 46 7.8 93 93 NW 13 20 29.77 1008 4 6.437376 0.03 0.762
6:50 pm 18:50 Cloudy with Light Rain 45 7 41 5 87 87 NW 10 17 29.77 1008 5 8.04672 0.04 1.016
6:53 pm 18:53 Cloudy with Light Rain 43 6.1 41 5 93 93 NW 7 11 29.74 1007 5 8.04672 0.04 1.016
7:53 pm 19:53 Cloudy with Light Rain 41 5 38 3.3 89 89 NW 7 11 29.77 1008 10 16.09344 0.02 0.508
8:06 pm 20:06 Cloudy with Light Rain 41 5 38 3.3 89 89 VRB 5 7 29.8 1009 6 9.656064 0.01 0.254
8:13 pm 20:13 Cloudy with Light Rain 41 5 38 3.3 89 89 NW 5 7 29.77 1008 5 8.04672 0.02 0.508
8:41 pm 20:41 Cloudy with Light Rain 40 4.4 38 3.3 93 93 NW 6 9 29.77 1008 7 11.265408 0.03 0.762
8:48 pm 20:48 Cloudy with Light Rain 39 4 37 3 93 93 NNW 8 13 29.77 1008 5 8.04672 0.04 1.016
8:53 pm 20:53 Cloudy with Rain 40 4.4 37 2.8 89 89 NW 9 15 29.74 1007 4 6.437376 0.05 1.27
9:03 pm 21:03 Cloudy with Rain 39 3.9 37 2.8 93 93 NNW 10 17 29.77 1008 4 6.437376 0.02 0.508
9:05 pm 21:05 Cloudy with Rain 39 3.9 37 2.8 93 93 NNW 10 17 29.8 1009 4 6.437376 0.03 0.762
9:12 pm 21:12 Cloudy with Light Rain 38 3.3 36 2.2 93 93 N 8 13 29.77 1008 5 8.04672 0.04 1.016
9:27 pm 21:27 Cloudy with Light Rain 38 3.3 35 1.7 89 89 N 5 7 29.77 1008 7 11.265408 0.04 1.016
9:53 pm 21:53 Cloudy with Light Rain 37 2.8 34 1.1 89 89 NW 7 11 29.74 1007 8 12.874752 0.05 1.27
10:27 pm 22:27 Cloudy with Light Rain 35 1.7 33 0.6 93 93 NW 9 15 29.8 1009 3 4.828032 0.02 0.508
10:49 pm 22:49 Cloudy with Light Rain 36 2 32 0 87 87 WNW 5 7 29.8 1009 4 6.437376 0.03 0.762
10:50 pm 22:50 Cloudy with Light Rain 35 1.7 32 0 89 89 WNW 7 11 29.74 1007 4 6.437376 0.03 0.762
11:02 pm 23:02 Cloudy with Light Rain 34 1.1 32 0 92 92 NNW 9 15 29.8 1009 4 6.437376 0.01 0.254
11:06 pm 23:06 Cloudy with Light Rain 34 1.1 32 0 92 92 NW 6 9 29.77 1008 5 8.04672 0.01 0.254
11:29 pm 23:29 Cloudy with Light Wintry Mix 34 1.1 31 -0.6 89 89 WNW 7 11 29.8 1009 4 6.437376 0.01 0.254
11:53 pm 23:53 Cloudy with Light Rain 33 0.6 31 -0.6 92 92 WNW 6 9 29.77 1008 2.5 4.02336 0.02 0.508

Powered by AerisWeather